RH
38 36 39 43 54 50 40 25 16 16 18 21 24 27 27 29 28 27 29 31 37 39 47 46 50 48 46 47 49 51 49 47 49 47 48 46 44 43 36 25 24 24 23
42 40 39 41 52 54 46 40 24 18 19 23 28 29 28 32 31 32 33 35 42 49 45 48 51 51 47 47 47 47 47 51 50 50 48 49 46 41 35 26 24 24 23
34 39 38 39 42 51 52 46 38 24 23 25 29 31 32 37 37 36 36 36 35 40 46 47 48 42 43 45 47 48 50 50 51 51 50 51 46 42 36 29 27 25 25
32 34 33 38 37 44 54 54 50 44 30 28 28 30 32 35 35 40 38 34 33 38 42 45 44 45 46 44 47 50 50 49 50 50 49 50 46 45 42 35 31 27 25
30 37 34 33 39 38 41 55 59 55 44 36 36 32 32 35 38 38 41 38 35 38 40 45 46 47 47 47 48 49 49 50 50 47 49 48 46 43 40 37 35 31 29
24 30 34 39 38 43 43 43 58 57 58 47 40 41 39 39 42 39 39 40 42 44 43 45 48 50 50 50 50 51 53 55 50 47 49 45 43 43 38 35 33 32 35
22 28 35 47 48 48 48 47 52 62 64 59 50 40 45 42 39 41 43 42 44 46 48 50 54 54 54 54 54 54 55 58 55 48 49 48 45 45 46 45 39 33 37
22 24 33 45 51 47 49 48 46 52 64 69 64 45 47 50 48 45 47 49 46 49 50 49 52 53 52 53 57 61 66 68 69 63 58 52 51 48 45 48 45 43 38
17 23 30 38 44 53 54 50 57 53 55 67 71 59 44 51 56 56 51 51 49 50 50 50 49 50 53 56 64 71 71 72 77 73 71 67 63 55 49 50 40 36 39
25 31 34 38 42 54 50 60 62 58 50 63 72 70 50 51 62 64 59 52 50 52 56 61 63 63 68 68 80 84 82 81 83 79 76 71 63 56 54 56 42 41 44
37 37 37 42 51 58 51 57 57 62 68 69 74 75 67 53 62 65 65 72 64 64 71 70 70 72 74 84 90 89 86 86 84 79 72 67 61 58 56 54 50 46 47
47 43 44 50 60 66 60 58 56 66 72 75 78 89 80 66 70 69 72 66 65 71 79 85 82 79 83 89 90 88 89 86 82 72 65 55 48 48 48 47 46 49 49
58 60 64 68 69 71 71 65 59 65 72 81 84 93 95 76 75 78 79 75 72 79 87 91 90 86 87 91 90 91 89 84 75 64 58 51 47 42 46 61 60 47 49
60 65 67 72 69 71 72 69 62 61 59 57 68 79 98 98 92 98 96 88 87 90 94 93 97 96 94 96 94 93 83 76 69 61 49 41 36 46 49 38 37 42 46
62 66 70 72 76 74 69 69 66 55 50 40 42 54 73 93 93 94 93 97 98 98 97 99 97 97 98 95 90 89 85 72 63 53 47 37 37 39 44 49 46 40 40
60 63 68 66 68 72 70 69 69 61 61 69 62 69 78 82 78 73 87 88 88 95 98 97 86 86 93 91 89 90 80 71 59 53 47 44 49 51 51 43 39 34 36
67 64 61 66 70 68 64 60 62 64 67 67 62 63 63 63 67 72 89 88 92 97 86 81 80 87 90 87 90 82 70 65 59 54 52 46 40 37 34 33 33 35 38
75 72 71 67 66 70 70 68 68 68 69 66 65 64 63 61 71 78 84 89 86 88 87 88 90 91 92 87 85 76 68 65 58 60 58 51 42 38 34 32 33 34 37
78 78 75 72 70 69 68 66 59 57 57 59 59 60 62 63 66 70 72 76 77 77 78 80 82 85 90 86 77 74 70 67 70 68 63 56 50 42 35 33 35 39 36
70 75 77 76 74 67 67 64 54 51 55 54 53 54 56 62 63 65 67 69 68 69 73 72 74 80 84 81 75 76 73 70 68 68 67 61 52 42 39 38 38 39 36
75 69 65 68 70 66 60 59 60 51 51 52 52 49 49 50 54 57 59 60 62 64 66 70 74 79 77 72 71 72 66 70 66 67 64 59 56 45 40 43 45 44 41
77 74 69 63 62 58 54 50 45 47 47 46 45 46 48 50 48 50 53 54 54 54 57 61 65 72 71 69 66 75 72 72 64 61 67 61 56 51 48 49 47 44 37
91 80 75 68 66 62 56 52 49 45 38 40 42 45 47 45 44 43 47 53 57 57 58 58 59 64 67 71 74 67 64 69 66 66 65 64 59 57 52 56 59 51 41
83 83 85 83 76 68 63 58 53 50 45 41 39 37 39 42 42 43 39 39 41 50 57 59 58 60 61 67 68 67 66 70 67 64 64 65 65 59 62 68 64 58 51
75 73 75 75 76 80 76 69 65 59 53 47 44 42 41 41 39 37 38 41 42 42 42 49 56 59 61 65 64 68 68 66 66 65 59 58 57 61 65 68 65 66 69
70 71 69 70 70 71 73 75 74 70 66 61 54 50 48 47 46 43 39 39 39 39 44 44 46 52 57 62 62 62 65 61 65 60 56 56 57 54 67 64 68 78 74